Regional Weather Roundup
Issued by NWS

Home | Current Version | Previous Version | Graphics & Text | Print | Product List | Glossary On
Versions: 1 2 3 4 5 6 7 8 9 10 11 12 13 14 15 16 17 18 19 20 21 22 23 24 25 26 27 28 29 30 31 32 33 34 35 36 37 38 39 40 41 42 43 44 45 46 47 48 49 50
187
ASUS44 KJAN 161603
RWRMS

MISSISSIPPI HOURLY WEATHER ROUNDUP
NATIONAL WEATHER SERVICE JACKSON MS
1100 AM CDT WED APR 16 2014

NOTE: "FAIR: INDICATES FEW OR NO CLOUDS BELOW 12,000 FEET WITH NO
SIGNIFICANT WEATHER AND/OR OBSTRUCTIONS TO VISIBILITY.

MSZ001>002-007>008-010>013-018>021-025>028-034>036-161700-
NORTHWEST MISSISSIPPI

CITY           SKY/WX    TMP DP  RH WIND       PRES   REMARKS
CLARKSDALE       N/A     48  30  49 E9        30.30F
CLEVELAND      FAIR      50  32  49 SE9       30.28F
GREENWOOD      SUNNY     51  27  39 E8        30.28F
GREENVILLE     SUNNY     51  32  48 SE8       30.28S
GRENADA        FAIR      50  32  50 E9        30.30F
OLIVE BRANCH   MOSUNNY   48  25  40 E9        30.30S
OXFORD         FAIR      48  25  40 E7        30.30F
TUNICA         SUNNY     52  32  46 SE8       30.31S
$$

MSZ003>006-009-014>017-022>024-029>033-037>039-161700-
NORTHEAST MISSISSIPPI

CITY           SKY/WX    TMP DP  RH WIND       PRES   REMARKS
BELMONT        FAIR      49  25  39 NE7       30.28F
COLUMBUS AFB   SUNNY     51  24  34 E8        30.28F
CORINTH        FAIR      48  23  37 E7        30.31F
GOLDN TRIANGLE SUNNY     50  27  40 E10       30.30F
STARKVILLE     FAIR      50  30  46 CALM      30.27F
TUPELO         SUNNY     50  26  39 VRB7      30.29F
$$

MSZ040-058-161700-
CENTRAL MISSISSIPPI

CITY           SKY/WX    TMP DP  RH WIND       PRES   REMARKS
JACKSON INTL   MOSUNNY   52  28  39 E6        30.27S
JACKSON HAWKNS SUNNY     52  26  36 VRB3      30.27S
MERIDIAN KEY   SUNNY     52  26  36 N5        30.26F
MERIDIAN NAS   SUNNY     51  27  39 E6        30.27F
RAYMOND        FAIR      52  46  82 E7        30.27S
VICKSBURG      SUNNY     50  30  46 SE10      30.27F
$$

MSZ059>079-161700-
SOUTH MISSISSIPPI

CITY           SKY/WX    TMP DP  RH WIND       PRES   REMARKS
BROOKHAVEN     FAIR      50  30  46 E7        30.27F
COLUMBIA       FAIR      54  30  40 MISG      30.25F
HATTIESBURG    SUNNY     53  29  39 VRB7      30.27S
MCCOMB         SUNNY     52  30  43 SE8       30.25F
NATCHEZ        SUNNY     54  30  40 S12       30.25F
PINE BELT      SUNNY     50  27  40 E6        30.26F
$$

MSZ080>082-161700-
COASTAL MISSISSIPPI

CITY           SKY/WX    TMP DP  RH WIND       PRES   REMARKS
BAY ST LOUIS   SUNNY     54  30  40 SE5       30.26S
BILOXI         SUNNY     53  32  43 NE7       30.25R
PASCAGOULA     SUNNY     54  30  40 NE7       30.24S
GULFPORT       SUNNY     55  29  36 CALM      30.25S
$$



USA.gov is the U.S. government's official web portal to all federal, state and local government web resources and services.